contact:dominique.lefevre@mio.osupytheas.fr, maurice.libes@osupytheas.fr
Project:EMSO Ligure-ouest http://www.emso-fr.org/EMSO-France
Sensor Aquadopp, line 13 Serial AQD14315 
DOI : "https://doi.org/10.17882/74513; https://doi.org/10.17882/83244" 
Title:EMSO Ligure Ouest : Data ligne ALBATROSS capteur AQUADOPP - deploiement 2021
Id,Date,Profondeur,Latitude,Longitude,X_East,Y_North,Z_Up,Amplitude_X,Amplitude_Y,Amplitude_Z,Batterie,SoundSpeed,Heading,Pitch,Roll,Pressure,Temperature,Speed,Direction
, , m, degrees North, degrees East, m.s-1, m.s-1,m.s-1, 1, 1, 1, Volt, m.s-1, degree, degree, degree, dbar, degree_C, m.s-1, degree
07,2022-08-22T23:30:00,1500.0,42.79,6.0312,-0.011,-0.001,0.011,45.0,46.0,46.0,13.0,1504.1,2.9,-0.1,0.6,1475.044,13.12,0.011,264.8
07,2022-08-23T00:00:00,1500.0,42.79,6.0312,-0.001,0.003,0.0,45.0,46.0,46.0,13.0,1504.1,6.0,0.1,0.9,1475.044,13.12,0.003,341.6
07,2022-08-23T00:30:00,1500.0,42.79,6.0312,-0.015,-0.005,-0.003,44.0,47.0,50.0,13.0,1504.1,8.2,-0.1,1.0,1475.047,13.12,0.015,251.6
07,2022-08-23T01:00:00,1500.0,42.79,6.0312,-0.01,0.003,0.019,44.0,45.0,52.0,13.0,1504.1,8.0,0.3,0.9,1475.055,13.12,0.01,286.7
07,2022-08-23T01:30:00,1500.0,42.79,6.0312,-0.014,-0.004,0.016,48.0,47.0,46.0,12.9,1504.1,5.7,0.2,0.9,1475.052,13.12,0.014,254.1
07,2022-08-23T02:00:00,1500.0,42.79,6.0312,-0.02,-0.003,-0.003,48.0,46.0,47.0,12.9,1504.0,5.3,0.1,0.8,1475.016,13.11,0.02,261.5
07,2022-08-23T02:30:00,1500.0,42.79,6.0312,-0.022,-0.006,0.004,45.0,46.0,44.0,13.0,1504.0,4.2,0.2,0.7,1475.06,13.11,0.022,254.7
07,2022-08-23T03:00:00,1500.0,42.79,6.0312,-0.021,-0.005,0.005,47.0,49.0,46.0,13.0,1504.0,2.0,0.0,1.0,1475.063,13.11,0.021,256.6
07,2022-08-23T03:30:00,1500.0,42.79,6.0312,-0.017,-0.012,-0.009,45.0,45.0,46.0,13.0,1504.0,357.3,-0.1,0.8,1475.114,13.11,0.02,234.8
07,2022-08-23T04:00:00,1500.0,42.79,6.0312,-0.029,-0.017,-0.01,46.0,45.0,44.0,13.0,1504.0,350.5,0.3,0.6,1475.103,13.11,0.033,239.6
07,2022-08-23T04:30:00,1500.0,42.79,6.0312,-0.033,0.005,-0.005,44.0,52.0,45.0,13.0,1504.0,347.4,0.0,0.7,1475.054,13.11,0.033,278.6
07,2022-08-23T05:00:00,1500.0,42.79,6.0312,-0.028,-0.004,-0.004,47.0,45.0,47.0,12.9,1504.0,342.9,0.1,0.7,1475.074,13.11,0.028,261.9
07,2022-08-23T05:30:00,1500.0,42.79,6.0312,-0.03,0.004,-0.007,46.0,47.0,46.0,13.0,1504.0,340.8,-0.1,0.6,1475.072,13.11,0.03,277.6
07,2022-08-23T06:00:00,1500.0,42.79,6.0312,-0.029,0.009,-0.008,46.0,47.0,46.0,13.0,1504.0,340.7,-0.1,0.9,1475.09,13.11,0.03,287.2
07,2022-08-23T06:30:00,1500.0,42.79,6.0312,-0.03,0.013,0.013,47.0,48.0,49.0,13.0,1504.1,340.7,-0.1,0.7,1475.048,13.12,0.032,293.4
07,2022-08-23T07:00:00,1500.0,42.79,6.0312,-0.023,-0.008,0.018,45.0,47.0,46.0,13.0,1504.0,337.0,0.3,0.9,1475.071,13.11,0.024,250.8
07,2022-08-23T07:30:00,1500.0,42.79,6.0312,-0.018,-0.002,0.009,48.0,47.0,47.0,13.0,1504.0,339.4,0.3,0.9,1475.079,13.11,0.018,263.7
07,2022-08-23T08:00:00,1500.0,42.79,6.0312,-0.026,0.0,0.002,45.0,47.0,48.0,13.0,1504.0,340.4,0.1,0.7,1475.073,13.11,0.026,270.0
07,2022-08-23T08:30:00,1500.0,42.79,6.0312,-0.034,0.0,0.009,45.0,47.0,47.0,13.0,1504.0,341.8,0.2,0.6,1475.049,13.11,0.034,270.0
07,2022-08-23T09:00:00,1500.0,42.79,6.0312,-0.028,-0.004,0.004,45.0,47.0,47.0,13.0,1504.0,342.7,-0.2,0.7,1475.037,13.11,0.028,261.9
07,2022-08-23T09:30:00,1500.0,42.79,6.0312,-0.029,-0.002,-0.008,46.0,47.0,48.0,13.0,1504.0,344.8,-0.2,0.7,1475.012,13.11,0.029,266.1
07,2022-08-23T10:00:00,1500.0,42.79,6.0312,-0.025,-0.001,0.005,46.0,46.0,43.0,13.0,1504.0,347.3,0.1,0.5,1475.051,13.11,0.025,267.7
07,2022-08-23T10:30:00,1500.0,42.79,6.0312,-0.027,0.0,-0.004,45.0,46.0,47.0,13.0,1504.0,351.5,0.2,0.6,1475.031,13.11,0.026,270.0
07,2022-08-23T11:00:00,1500.0,42.79,6.0312,-0.034,0.009,0.002,45.0,52.0,47.0,13.0,1504.0,353.5,0.1,0.6,1475.025,13.11,0.035,284.8
07,2022-08-23T11:30:00,1500.0,42.79,6.0312,-0.025,-0.002,0.007,48.0,51.0,50.0,13.0,1504.0,355.9,0.1,0.8,1475.015,13.11,0.025,265.4
07,2022-08-23T12:00:00,1500.0,42.79,6.0312,-0.033,0.014,0.006,48.0,49.0,50.0,13.0,1504.0,356.5,-0.1,0.6,1475.025,13.11,0.035,293.0
07,2022-08-23T12:30:00,1500.0,42.79,6.0312,-0.024,0.008,0.0,48.0,49.0,47.0,13.0,1504.0,359.7,0.1,0.6,1475.016,13.11,0.025,288.4
07,2022-08-23T13:00:00,1500.0,42.79,6.0312,-0.016,0.008,0.007,50.0,48.0,50.0,13.0,1504.0,5.0,0.2,0.7,1475.026,13.11,0.017,296.6
07,2022-08-23T13:30:00,1500.0,42.79,6.0312,-0.029,0.013,0.007,48.0,50.0,49.0,13.0,1504.0,8.0,0.0,0.6,1475.039,13.11,0.031,294.1
07,2022-08-23T14:00:00,1500.0,42.79,6.0312,-0.009,0.007,-0.004,47.0,53.0,46.0,13.0,1504.0,8.3,-0.1,0.6,1475.085,13.11,0.011,307.9
07,2022-08-23T14:30:00,1500.0,42.79,6.0312,-0.014,0.008,-0.007,50.0,49.0,47.0,13.0,1504.0,10.2,0.2,0.7,1475.096,13.11,0.016,299.7
07,2022-08-23T15:00:00,1500.0,42.79,6.0312,-0.007,0.008,0.002,46.0,49.0,47.0,13.0,1504.0,9.6,0.1,0.9,1475.136,13.11,0.01,318.8
07,2022-08-23T15:30:00,1500.0,42.79,6.0312,-0.012,0.007,0.007,49.0,46.0,48.0,13.0,1504.0,10.6,-0.1,0.8,1475.11,13.11,0.013,300.3
07,2022-08-23T16:00:00,1500.0,42.79,6.0312,-0.014,0.004,0.01,48.0,50.0,48.0,13.0,1504.0,9.9,0.0,0.7,1475.117,13.11,0.014,285.9
07,2022-08-23T16:30:00,1500.0,42.79,6.0312,-0.032,0.003,0.0,48.0,49.0,51.0,13.0,1504.0,10.4,-0.1,0.9,1475.173,13.11,0.032,275.4
07,2022-08-23T17:00:00,1500.0,42.79,6.0312,-0.027,0.0,0.023,49.0,48.0,44.0,13.0,1504.0,9.9,0.0,0.6,1475.149,13.11,0.026,270.0
07,2022-08-23T17:30:00,1500.0,42.79,6.0312,-0.019,-0.001,-0.003,47.0,48.0,50.0,13.0,1504.0,7.8,0.2,0.6,1475.165,13.11,0.019,267.0
07,2022-08-23T18:00:00,1500.0,42.79,6.0312,-0.012,-0.005,0.007,48.0,47.0,47.0,13.0,1504.0,4.0,0.1,0.7,1475.155,13.11,0.013,247.4
07,2022-08-23T18:30:00,1500.0,42.79,6.0312,-0.026,-0.005,0.0,45.0,48.0,47.0,13.0,1504.0,0.7,-0.2,0.8,1475.154,13.11,0.026,259.1
07,2022-08-23T19:00:00,1500.0,42.79,6.0312,-0.021,-0.001,-0.002,48.0,47.0,47.0,13.0,1504.0,356.9,0.1,0.9,1475.174,13.11,0.021,267.3
07,2022-08-23T19:30:00,1500.0,42.79,6.0312,-0.027,-0.012,0.009,49.0,48.0,47.0,12.9,1504.0,353.9,0.1,0.7,1475.194,13.11,0.029,246.0
07,2022-08-23T20:00:00,1500.0,42.79,6.0312,-0.035,-0.007,-0.012,49.0,49.0,51.0,13.0,1504.0,351.9,-0.2,1.0,1475.174,13.11,0.035,258.7
07,2022-08-23T20:30:00,1500.0,42.79,6.0312,-0.036,0.001,-0.009,50.0,48.0,48.0,13.0,1504.0,346.1,-0.2,0.6,1475.122,13.11,0.036,271.6
07,2022-08-23T21:00:00,1500.0,42.79,6.0312,-0.02,-0.011,0.004,48.0,47.0,47.0,12.9,1504.0,344.0,0.0,0.9,1475.133,13.11,0.022,241.2
07,2022-08-23T21:30:00,1500.0,42.79,6.0312,-0.029,-0.004,0.001,48.0,48.0,48.0,13.0,1504.0,342.1,0.2,0.6,1475.128,13.11,0.029,262.2
07,2022-08-23T22:00:00,1500.0,42.79,6.0312,-0.021,-0.011,0.001,50.0,50.0,49.0,13.0,1504.0,342.2,0.0,0.7,1475.11,13.11,0.023,242.4
07,2022-08-23T22:30:00,1500.0,42.79,6.0312,-0.024,0.002,0.006,48.0,48.0,50.0,13.0,1504.0,343.7,-0.1,0.8,1475.074,13.11,0.024,274.8
07,2022-08-23T23:00:00,1500.0,42.79,6.0312,-0.041,-0.006,0.003,48.0,47.0,48.0,13.0,1504.0,344.9,-0.1,0.6,1475.073,13.11,0.041,261.7
